Weather History for Ortonville, MN

Change the Weather History Date:

Friday, November 2, 2012

  Actual Average (KAQP) Record (KAQP)
Temperature  
Mean Temperature 30 °F -  
Max Temperature 35 °F 45 °F 68 °F (2008)
Min Temperature 26 °F 27 °F 8 °F (1996)
Degree Days  
Heating Degree Days 34    
Moisture  
Dew Point 24 °F    
Average Humidity 72    
Maximum Humidity 80    
Minimum Humidity 65    
Precipitation  
Precipitation 0.00 in - - ()
Sea Level Pressure  
Sea Level Pressure 30.11 in    
Wind  
Wind Speed 5 mph (East)    
Max Wind Speed 10 mph    
Max Gust Speed -    
Visibility 10 miles    
Events      
Averages and records for this station are not official NWS values.
T = Trace of Precipitation, MM = Missing Value Source: NWS Daily Summary

Daily Weather History Graph

Daily Weather History Graph

Search for Another Location

Airport:

Trip Planner

Search our weather history database for the weather conditions in past years. The results will help you decide how hot, cold, wet, or windy it might be!

Date:

Astronomy

Nov. 02, 2012 Rise Set
Actual Time 8:06 AM CDT 6:10 PM CDT
Civil Twilight 7:35 AM CDT 6:41 PM CDT
Nautical Twilight 7:00 AM CDT 7:16 PM CDT
Astronomical Twilight 6:26 AM CDT 7:51 PM CDT
Moon 8:53 PM CDT (11/2) 11:34 AM CDT (11/2)
Length of Visible Light 11h 05m
Length of Day
10h 04m
Waning Gibbous, 87% of the Moon is Illuminated
Nov 2
Waning Gibbous
Nov 6
Last Quarter
Nov 13
New
Nov 20
First Quarter
Nov 28
Full

Hourly Weather History & Observations

Time (CDT) Temp. Windchill Dew Point Humidity Pressure Visibility Wind Dir Wind Speed Gust Speed Precip Events Conditions
12:14 AM 28.4 °F 22.2 °F 21.2 °F 74% 30.08 in 10.0 mi NNE 5.8 mph - N/A   Clear
12:33 AM 26.6 °F 21.2 °F 21.2 °F 80% 30.08 in 10.0 mi NNE 4.6 mph - N/A   Clear
12:54 AM 26.6 °F 21.2 °F 21.2 °F 80% 30.07 in 10.0 mi NE 4.6 mph - N/A   Clear
1:14 AM 26.6 °F 19.1 °F 21.2 °F 80% 30.07 in 10.0 mi NE 6.9 mph - N/A   Clear
1:33 AM 26.6 °F 20.0 °F 21.2 °F 80% 30.08 in 10.0 mi NE 5.8 mph - N/A   Clear
1:54 AM 26.6 °F 20.0 °F 21.2 °F 80% 30.08 in 10.0 mi NE 5.8 mph - N/A   Clear
2:13 AM 26.6 °F 21.2 °F 21.2 °F 80% 30.07 in 10.0 mi NE 4.6 mph - N/A   Clear
2:34 AM 26.6 °F 21.2 °F 21.2 °F 80% 30.06 in 10.0 mi ENE 4.6 mph - N/A   Clear
2:54 AM 26.6 °F 22.6 °F 21.2 °F 80% 30.07 in 10.0 mi ENE 3.5 mph - N/A   Clear
3:13 AM 28.4 °F 24.6 °F 21.2 °F 74% 30.07 in 10.0 mi ENE 3.5 mph - N/A   Clear
3:34 AM 28.4 °F 23.3 °F 23.0 °F 80% 30.06 in 10.0 mi East 4.6 mph - N/A   Clear
3:54 AM 28.4 °F 22.2 °F 21.2 °F 74% 30.06 in 10.0 mi East 5.8 mph - N/A   Clear
4:13 AM 28.4 °F 22.2 °F 21.2 °F 74% 30.06 in 10.0 mi East 5.8 mph - N/A   Clear
4:34 AM 28.4 °F 20.4 °F 21.2 °F 74% 30.06 in 10.0 mi East 8.1 mph - N/A   Clear
4:53 AM 28.4 °F 20.4 °F 21.2 °F 74% 30.05 in 10.0 mi East 8.1 mph - N/A   Clear
5:14 AM 28.4 °F 20.4 °F 21.2 °F 74% 30.06 in 10.0 mi East 8.1 mph - N/A   Clear
5:34 AM 28.4 °F 20.4 °F 21.2 °F 74% 30.07 in 10.0 mi East 8.1 mph - N/A   Clear
5:53 AM 28.4 °F 20.4 °F 21.2 °F 74% 30.07 in 10.0 mi East 8.1 mph - N/A   Clear
6:14 AM 28.4 °F 21.2 °F 21.2 °F 74% 30.07 in 10.0 mi East 6.9 mph - N/A   Clear
6:34 AM 28.4 °F 19.7 °F 21.2 °F 74% 30.08 in 10.0 mi East 9.2 mph - N/A   Clear
6:53 AM 28.4 °F 20.4 °F 23.0 °F 80% 30.09 in 10.0 mi East 8.1 mph - N/A   Clear
7:14 AM 28.4 °F 19.1 °F 23.0 °F 80% 30.08 in 10.0 mi East 10.4 mph - N/A   Clear
7:33 AM 28.4 °F 19.7 °F 23.0 °F 80% 30.08 in 10.0 mi East 9.2 mph - N/A   Clear
7:54 AM 28.4 °F 20.4 °F 21.2 °F 74% 30.09 in 10.0 mi ESE 8.1 mph - N/A   Clear
8:14 AM 28.4 °F 20.4 °F 23.0 °F 80% 30.10 in 10.0 mi ESE 8.1 mph - N/A   Clear
8:33 AM 28.4 °F 23.3 °F 23.0 °F 80% 30.11 in 10.0 mi ESE 4.6 mph - N/A   Clear
8:54 AM 28.4 °F 21.2 °F 23.0 °F 80% 30.11 in 10.0 mi ESE 6.9 mph - N/A   Clear
9:14 AM 28.4 °F 22.2 °F 23.0 °F 80% 30.13 in 10.0 mi ESE 5.8 mph - N/A   Clear
9:34 AM 30.2 °F 25.4 °F 23.0 °F 75% 30.14 in 10.0 mi ESE 4.6 mph - N/A   Clear
9:53 AM 30.2 °F 26.7 °F 23.0 °F 75% 30.14 in 10.0 mi ESE 3.5 mph - N/A   Scattered Clouds
10:14 AM 30.2 °F 22.6 °F 23.0 °F 75% 30.13 in 10.0 mi ESE 8.1 mph - N/A   Scattered Clouds
10:34 AM 30.2 °F 23.4 °F 24.8 °F 80% 30.14 in 10.0 mi SE 6.9 mph - N/A   Mostly Cloudy
10:54 AM 32.0 °F 24.2 °F 24.8 °F 75% 30.13 in 10.0 mi SE 9.2 mph - N/A   Overcast
11:14 AM 32.0 °F 24.2 °F 24.8 °F 75% 30.14 in 10.0 mi SE 9.2 mph - N/A   Overcast
11:33 AM 32.0 °F 24.8 °F 24.8 °F 75% 30.14 in 10.0 mi SE 8.1 mph - N/A   Overcast
11:54 AM 32.0 °F 24.8 °F 24.8 °F 75% 30.14 in 10.0 mi ESE 8.1 mph - N/A   Overcast
12:14 PM 33.8 °F 27.0 °F 24.8 °F 70% 30.15 in 10.0 mi SE 8.1 mph - N/A   Overcast
12:34 PM 33.8 °F 28.6 °F 24.8 °F 70% 30.14 in 10.0 mi SE 5.8 mph - N/A   Overcast
12:54 PM 33.8 °F 27.7 °F 24.8 °F 70% 30.14 in 10.0 mi SE 6.9 mph - N/A   Overcast
1:14 PM 33.8 °F 27.0 °F 24.8 °F 70% 30.13 in 10.0 mi SE 8.1 mph - N/A   Overcast
1:33 PM 33.8 °F 28.6 °F 24.8 °F 70% 30.12 in 10.0 mi SE 5.8 mph - N/A   Overcast
1:54 PM 33.8 °F 29.6 °F 24.8 °F 70% 30.12 in 10.0 mi SE 4.6 mph - N/A   Overcast
2:14 PM 35.6 °F 29.9 °F 24.8 °F 65% 30.11 in 10.0 mi SSE 6.9 mph - N/A   Overcast
2:33 PM 35.6 °F 31.7 °F 24.8 °F 65% 30.11 in 10.0 mi ESE 4.6 mph - N/A   Overcast
2:54 PM 35.6 °F 29.9 °F 24.8 °F 65% 30.11 in 10.0 mi ESE 6.9 mph - N/A   Overcast
3:13 PM 35.6 °F 30.7 °F 24.8 °F 65% 30.10 in 10.0 mi East 5.8 mph - N/A   Overcast
3:34 PM 35.6 °F 31.7 °F 24.8 °F 65% 30.10 in 10.0 mi East 4.6 mph - N/A   Overcast
3:44 PM 35.6 °F 30.7 °F 24.8 °F 65% 30.10 in 10.0 mi ESE 5.8 mph - N/A   Overcast
4:14 PM 35.6 °F 30.7 °F 24.8 °F 65% 30.10 in 10.0 mi ESE 5.8 mph - N/A   Overcast
4:34 PM 35.6 °F 29.9 °F 24.8 °F 65% 30.10 in 10.0 mi East 6.9 mph - N/A   Overcast
4:53 PM 35.6 °F 30.7 °F 24.8 °F 65% 30.10 in 10.0 mi ESE 5.8 mph - N/A   Overcast
5:14 PM 35.6 °F 32.8 °F 24.8 °F 65% 30.10 in 10.0 mi ESE 3.5 mph - N/A   Overcast
5:33 PM 35.6 °F 32.8 °F 24.8 °F 65% 30.11 in 10.0 mi East 3.5 mph - N/A   Overcast
5:50 PM 35.6 °F 31.7 °F 24.8 °F 65% 30.11 in 10.0 mi East 4.6 mph - N/A   Overcast
6:14 PM 35.6 °F 31.7 °F 24.8 °F 65% 30.11 in 10.0 mi East 4.6 mph - N/A   Overcast
6:33 PM 35.6 °F 31.7 °F 24.8 °F 65% 30.11 in 10.0 mi ESE 4.6 mph - N/A   Overcast
6:54 PM 35.6 °F 32.8 °F 24.8 °F 65% 30.12 in 10.0 mi East 3.5 mph - N/A   Overcast
7:14 PM 35.6 °F 32.8 °F 24.8 °F 65% 30.13 in 10.0 mi ESE 3.5 mph - N/A   Overcast
7:34 PM 35.6 °F - 24.8 °F 65% 30.13 in 10.0 mi Calm Calm - N/A   Overcast
7:53 PM 35.6 °F - 24.8 °F 65% 30.13 in 10.0 mi Calm Calm - N/A   Overcast
8:14 PM 35.6 °F - 24.8 °F 65% 30.14 in 10.0 mi Calm Calm - N/A   Overcast
8:33 PM 35.6 °F - 26.6 °F 70% 30.13 in 10.0 mi Calm Calm - N/A   Overcast
8:54 PM 35.6 °F 32.8 °F 26.6 °F 70% 30.13 in 10.0 mi ESE 3.5 mph - N/A   Overcast
9:13 PM 35.6 °F - 26.6 °F 70% 30.14 in 10.0 mi Calm Calm - N/A   Overcast
9:34 PM 35.6 °F - 26.6 °F 70% 30.14 in 10.0 mi Calm Calm - N/A   Overcast
9:54 PM 35.6 °F - 26.6 °F 70% 30.14 in 10.0 mi Calm Calm - N/A   Overcast
10:14 PM 35.6 °F - 26.6 °F 70% 30.15 in 10.0 mi Calm Calm - N/A   Overcast
10:34 PM 35.6 °F 32.8 °F 26.6 °F 70% 30.14 in 10.0 mi SE 3.5 mph - N/A   Overcast
10:53 PM 35.6 °F - 26.6 °F 70% 30.15 in 10.0 mi Calm Calm - N/A   Overcast
11:14 PM 35.6 °F - 26.6 °F 70% 30.15 in 10.0 mi Calm Calm - N/A   Overcast
11:34 PM 35.6 °F - 26.6 °F 70% 30.15 in 10.0 mi Calm Calm - N/A   Overcast
11:53 PM 35.6 °F - 26.6 °F 70% 30.15 in 10.0 mi Calm Calm - N/A   Overcast